Content
SEND FEEDBACK

Daily
Averages
Monthly
Summary
United States of America

GOESSEL, KANSAS


Home > North America > United States > Kansas
Elevation: 1500 feet     Latitude: 38 15N     Longitude: 097 21W

WEATHER
 
SELECT A DAY
Number of Records: 439,815;   Date Range: 1/1/95 - 9/16/14
 
SHARE

PRINT THIS DATA

[ ← Previous Day ]
WEATHER ALMANAC - JANUARY 31, 2013
[ Next Day → ]
[ °C ]   °F
Weather ElementAverageHighLow
Temperature20.8 °F26.6 °F (7:35 am)10.4 °F (8:15 pm)
Dewpoint11 °F19.4 °F (7:35 am)1.4 °F (6:15 pm)
Humidity66.2 %74 % (12:35 am)49 % (5:15 pm)
Barometer30.18 in30.43 in (7:55 pm)29.95 in (12:35 am)
Wind Speed12.5 mph26.5 mph (1:15 pm)
Wind Gust33.4 mph (2:55 pm)
Weather ElementAverage
Visibility10 mi
Wind DirectionWSW (232.7 °)

Weather ElementTotal
Precipitation---
Heating Degree Days46.5 (Base 65)
Averaged from 67 records on January 31, 2013
WEATHER CONDITIONS BREAKOUT
WIND DIRECTION BREAKOUT
WEATHER BY HOUR - JANUARY 31, 2013
[ °C ]   °F
Local TimeTemperatureDewpointHumidityBarometerVisibilityWind DirectionWind SpeedGust SpeedPrecipitationEventsConditions
12:35 AM21.2 °F14.0 °F74 %29.95 in10.0 miSSW (210°)10.4 mphClear
12:55 AM21.2 °F14.0 °F74 %29.96 in10.0 miSSW (210°)10.4 mphClear
1:15 AM21.2 °F14.0 °F74 %29.96 in10.0 miSW (220°)10.4 mphClear
1:35 AM21.2 °F14.0 °F74 %29.95 in10.0 miSW (220°)10.4 mphClear
1:55 AM21.2 °F14.0 °F74 %29.95 in10.0 miSW (230°)11.5 mphClear
2:15 AM21.2 °F14.0 °F74 %29.95 in10.0 miSW (230°)9.2 mphClear
2:35 AM21.2 °F14.0 °F74 %29.96 in10.0 miSW (230°)9.2 mphClear
2:55 AM21.2 °F14.0 °F74 %29.96 in10.0 miSW (230°)10.4 mphClear
3:15 AM21.2 °F14.0 °F74 %29.96 in10.0 miSW (230°)10.4 mphClear
3:35 AM21.2 °F14.0 °F74 %29.95 in10.0 miWSW (240°)9.2 mphClear
3:55 AM21.2 °F14.0 °F74 %29.96 in10.0 miWSW (250°)8.1 mphClear
4:15 AM21.2 °F14.0 °F74 %29.96 in10.0 miWest (260°)9.2 mphClear
4:35 AM23.0 °F15.8 °F74 %29.96 in10.0 miWest (270°)8.1 mphClear
4:55 AM24.8 °F15.8 °F69 %29.97 in10.0 miWest (280°)8.1 mphClear
5:15 AM24.8 °F15.8 °F69 %29.96 in10.0 miWest (280°)6.9 mphClear
5:35 AM24.8 °F15.8 °F69 %29.97 in10.0 miWest (280°)6.9 mphClear
5:55 AM24.8 °F15.8 °F69 %29.97 in10.0 miWest (280°)6.9 mphClear
6:15 AM24.8 °F15.8 °F69 %29.97 in10.0 miWNW (300°)6.9 mphClear
6:35 AM24.8 °F15.8 °F69 %29.99 in10.0 miWNW (300°)6.9 mphClear
6:55 AM24.8 °F15.8 °F69 %29.99 in10.0 miNNW (330°)8.1 mphClear
7:15 AM23.0 °F15.8 °F74 %30.01 in10.0 miNNW (340°)8.1 mphMostly Cloudy
7:35 AM26.6 °F19.4 °F74 %30.02 in10.0 miNorth (350°)11.5 mphOvercast
7:55 AM24.8 °F17.6 °F74 %30.04 in10.0 miNorth (360°)11.5 mphOvercast
8:15 AM24.8 °F17.6 °F74 %30.05 in10.0 miNorth (10°)12.7 mphOvercast
8:35 AM23.0 °F15.8 °F74 %30.05 in10.0 miNorth (10°)15.0 mphMostly Cloudy
8:55 AM23.0 °F15.8 °F74 %30.07 in10.0 miNNE (20°)13.8 mphPartly Cloudy
9:15 AM23.0 °F15.8 °F74 %30.09 in10.0 miNNE (20°)11.5 mphClear
9:35 AM24.8 °F17.6 °F74 %30.13 in10.0 miNorth (10°)17.3 mphClear
9:55 AM24.8 °F15.8 °F69 %30.14 in10.0 miNorth (360°)18.4 mphClear
10:15 AM24.8 °F15.8 °F69 %30.17 in10.0 miNorth (360°)18.4 mphClear
10:35 AM24.8 °F15.8 °F69 %30.17 in10.0 miNorth (10°)18.4 mphPartly Cloudy
10:55 AM24.8 °F15.8 °F69 %30.19 in10.0 miNorth (360°)17.3 mphPartly Cloudy
11:15 AM24.8 °F15.8 °F69 %30.21 in10.0 miNorth (360°)15.0 mphClear
11:35 AM24.8 °F15.8 °F69 %30.23 in10.0 miNorth (360°)16.1 mphMostly Cloudy
11:55 AM24.8 °F15.8 °F69 %30.23 in10.0 miNorth (360°)11.5 mphOvercast
12:15 PM24.8 °F15.8 °F69 %30.24 in10.0 miNorth (350°)18.4 mph23.0 mphOvercast
12:35 PM24.8 °F15.8 °F69 %30.25 in10.0 miNorth (10°)25.3 mph29.9 mphOvercast
12:55 PM23.0 °F14.0 °F68 %30.25 in10.0 miNorth (360°)24.2 mph29.9 mphOvercast
1:15 PM23.0 °F14.0 °F68 %30.26 in10.0 miNorth (10°)26.5 mph29.9 mphMostly Cloudy
1:35 PM23.0 °F12.2 °F63 %30.26 in10.0 miNorth (360°)25.3 mph32.2 mphScattered Clouds
2:15 PM24.8 °F10.4 °F54 %30.27 in10.0 miNorth (10°)24.2 mph29.9 mphPartly Cloudy
2:35 PM24.8 °F10.4 °F54 %30.27 in10.0 miNorth (360°)24.2 mph32.2 mphClear
2:55 PM23.0 °F8.6 °F54 %30.28 in10.0 miNorth (360°)25.3 mph33.4 mphClear
3:15 PM23.0 °F8.6 °F54 %30.29 in10.0 miNorth (350°)20.7 mph27.6 mphClear
3:35 PM23.0 °F8.6 °F54 %30.30 in10.0 miNNW (340°)21.9 mph28.8 mphClear
3:55 PM21.2 °F6.8 °F54 %30.31 in10.0 miNorth (350°)20.7 mph26.5 mphClear
4:15 PM21.2 °F6.8 °F54 %30.30 in10.0 miNorth (10°)21.9 mph26.5 mphClear
4:35 PM21.2 °F6.8 °F54 %30.32 in10.0 miNorth (360°)18.4 mph23.0 mphClear
4:55 PM19.4 °F5.0 °F54 %30.34 in10.0 miNorth (350°)15.0 mph23.0 mphClear
5:15 PM19.4 °F3.2 °F49 %30.34 in10.0 miNorth (350°)18.4 mph27.6 mphClear
5:35 PM19.4 °F3.2 °F49 %30.34 in10.0 miNorth (360°)18.4 mph21.9 mphClear
6:15 PM17.6 °F1.4 °F49 %30.36 in10.0 miNorth (360°)11.5 mphClear
6:35 PM15.8 °F1.4 °F53 %30.36 in10.0 miNorth (360°)9.2 mphClear
6:55 PM15.8 °F1.4 °F53 %30.39 in10.0 miNNW (340°)4.6 mphClear
7:15 PM12.2 °F1.4 °F62 %30.41 in10.0 miNorth (350°)5.8 mphClear
7:35 PM12.2 °F1.4 °F62 %30.41 in10.0 miNorth (350°)5.8 mphClear
7:55 PM12.2 °F3.2 °F67 %30.43 in10.0 miNNW (340°)6.9 mphClear
8:15 PM10.4 °F1.4 °F67 %30.42 in10.0 miNorth (350°)5.8 mphClear
8:35 PM12.2 °F3.2 °F67 %30.43 in10.0 miNorth (10°)5.8 mphClear
8:55 PM12.2 °F3.2 °F67 %30.43 in10.0 miNE (40°)3.5 mphClear
9:15 PM14.0 °F3.2 °F62 %30.42 in10.0 miNE (50°)5.8 mphClear
9:35 PM14.0 °F3.2 °F62 %30.42 in10.0 miNNE (30°)5.8 mphClear
10:15 PM12.2 °F3.2 °F67 %30.43 in10.0 miNE (50°)3.5 mphScattered Clouds
10:35 PM14.0 °F3.2 °F62 %30.43 in10.0 miNE (40°)4.6 mphOvercast
10:55 PM14.0 °F3.2 °F62 %30.42 in10.0 miENE (70°)3.5 mphMostly Cloudy
11:15 PM14.0 °F3.2 °F62 %30.42 in10.0 miEast (100°)4.6 mphClear
11:35 PM15.8 °F6.8 °F68 %30.41 in10.0 miEast (90°)6.9 mphMostly Cloudy
Hourly data recorded from KEWK, located miles away from Goessel, Kansas







STORIES FROM OUR PARTNERS